Weather History for West Plains, MO

Change the Weather History Date:

Sunday, January 6, 2013

  Actual Average Record
Temperature  
Mean Temperature 1 °C 1 °C  
Max Temperature 7 °C 7 °C 21 °C (2008)
Min Temperature -6 °C -5 °C -20 °C (2014)
Degree Days  
Heating Degree Days 32 31  
Month to date heating degree days 205 186  
Since 1 July heating degree days 1873 1931  
Cooling Degree Days 0 0  
Month to date cooling degree days 0 0  
Year to date cooling degree days 0 0  
Moisture  
Dew Point -6 °C    
Average Humidity 62    
Maximum Humidity 85    
Minimum Humidity 39    
Precipitation  
Precipitation 0.00 mm 1.78 mm 0.91 mm (2002)
Month to date precipitation 0.01 0.41  
Year to date precipitation 0.01 0.41  
Sea Level Pressure  
Sea Level Pressure 1026 hPa    
Wind  
Wind Speed 12 km/h (NW)    
Max Wind Speed 26 km/h    
Max Gust Speed 39 km/h    
Visibility 16 kilometers    
Events      
T = Trace of Precipitation, MM = Missing Value Source: NWS Daily Summary

Daily Weather History Graph

Daily Weather History Graph

Search for Another Location

Airport:

Trip Planner

Search our weather history database for the weather conditions in past years. The results will help you decide how hot, cold, wet, or windy it might be!

Date:

Astronomy

Jan. 06, 2013 Rise Set
Actual Time 7:21 AM CST 5:06 PM CST
Civil Twilight 6:52 AM CST 5:35 PM CST
Nautical Twilight 6:20 AM CST 6:07 PM CST
Astronomical Twilight 5:48 AM CST 6:38 PM CST
Moon 1:39 AM CST (1/6) 12:31 PM CST (1/6)
Length of Visible Light 10h 42m
Length of Day
9h 45m
Waning Crescent, 33% of the Moon is Illuminated
Jan 6
Waning Crescent
Jan 11
New
Jan 18
First Quarter
Jan 26
Full
Feb 3
Last Quarter

Hourly Weather History & Observations

Time (CST) Temp. Windchill Dew Point Humidity Pressure Visibility Wind Dir Wind Speed Gust Speed Precip Events Conditions
12:53 AM 1.7 °C -1.5 °C -1.7 °C 78% 1022.6 hPa 16.1 km SW 11.1 km/h / 3.1 m/s - N/A   Clear
1:53 AM 1.7 °C - -1.7 °C 78% 1022.5 hPa 16.1 km North - - N/A   Clear
2:53 AM 1.1 °C - -1.7 °C 82% 1022.4 hPa 16.1 km North - - N/A   Clear
3:53 AM 0.0 °C -4.4 °C -1.7 °C 88% 1022.4 hPa 14.5 km West 14.8 km/h / 4.1 m/s - N/A   Clear
4:53 AM 0.0 °C -4.4 °C -2.2 °C 85% 1022.2 hPa 14.5 km West 14.8 km/h / 4.1 m/s - N/A   Clear
6:53 AM -0.6 °C -5.1 °C -3.9 °C 79% 1023.6 hPa 16.1 km WNW 14.8 km/h / 4.1 m/s - N/A   Clear
7:53 AM -1.1 °C -6.4 °C -4.4 °C 79% 1024.5 hPa 16.1 km NW 18.5 km/h / 5.1 m/s 31.5 km/h / 8.7 m/s N/A   Clear
8:53 AM -0.6 °C -6.3 °C -5.0 °C 72% 1025.0 hPa 16.1 km NW 22.2 km/h / 6.2 m/s 31.5 km/h / 8.7 m/s N/A   Clear
9:53 AM 0.6 °C -5.2 °C -5.0 °C 66% 1026.0 hPa 16.1 km NW 25.9 km/h / 7.2 m/s 38.9 km/h / 10.8 m/s N/A   Clear
10:53 AM 2.2 °C -2.7 °C -5.0 °C 59% 1026.2 hPa 16.1 km NNW 22.2 km/h / 6.2 m/s 31.5 km/h / 8.7 m/s N/A   Clear
11:53 AM 3.9 °C 0.4 °C -4.4 °C 55% 1025.8 hPa 16.1 km NNW 14.8 km/h / 4.1 m/s - N/A   Clear
12:53 PM 5.0 °C 0.6 °C -4.4 °C 51% 1025.6 hPa 16.1 km NW 24.1 km/h / 6.7 m/s - N/A   Clear
1:53 PM 5.0 °C 1.8 °C -5.0 °C 49% 1026.0 hPa 16.1 km NNW 14.8 km/h / 4.1 m/s - N/A   Clear
3:53 PM 5.6 °C 3.2 °C -7.2 °C 40% 1027.1 hPa 16.1 km NNW 11.1 km/h / 3.1 m/s - N/A   Clear
4:53 PM 3.3 °C 2.0 °C -7.8 °C 45% 1027.7 hPa 16.1 km North 5.6 km/h / 1.5 m/s - N/A   Clear
5:53 PM 1.7 °C 0.1 °C -8.3 °C 48% 1028.1 hPa 16.1 km NNW 5.6 km/h / 1.5 m/s - N/A   Clear
6:53 PM -0.6 °C - -8.3 °C 57% 1028.4 hPa 16.1 km Calm Calm - N/A   Clear
7:53 PM -1.1 °C - -8.3 °C 59% 1028.9 hPa 16.1 km Calm Calm - N/A   Clear
9:53 PM -3.9 °C - -8.9 °C 69% 1029.4 hPa 16.1 km Calm Calm - N/A   Clear
10:53 PM -5.0 °C - -8.9 °C 74% 1029.3 hPa 16.1 km Calm Calm - N/A   Clear
11:53 PM -5.6 °C - -8.9 °C 78% 1029.3 hPa 16.1 km Calm Calm - N/A   Clear